292P/Li (1998)

Japanese version
Home page
Updated on July 28, 2013

---------------------------------------------------------------------

* Profile

Designation 292P/1998 Y2
Discovery Date December 26, 1998
Magnitude 16.2 mag
Discoverer W.-d. Li (Lick Observatory)

* Pictures

* Orbital Elements

Epoch 1998 Dec. 13.0 TT = JDT 2451160.5
T 1998 Dec. 17.81345 TT                                 MPC
q   2.5188493            (2000.0)            P               Q
n   0.06506106     Peri.  318.98354     +0.57360106     -0.70816247
a   6.1224039      Node    91.83125     +0.81696615     +0.45803199
e   0.5885849      Incl.   24.32420     +0.05956622     +0.53731984
P  15.1
From 149 observations 1998 Sept. 23-2013 July 26, mean residual 0".7.

* Finding Charts

* Magnitudes Graph

        m1 = 10.0 + 5 log d + 10.0 log r

---------------------------------------------------------------------

The orbital elements are published on M.P.E.C. 2013-O52.
The charts are made with StellaNavigator Ver.2.0 for Windows (AstroArts / ASCII).
The magnitudes graphs are made with Comet for Windows.

---------------------------------------------------------------------

Copyright(C) Seiichi Yoshida (comet@aerith.net). All rights reserved.